De Queen, AR

2:17 AM CDT on April 06, 2020 (GMT -0500)
Helms Sevier County

Weather History for KDEQ - October, 2019

Change the Weather History Date:

Thursday, October 10, 2019

  Actual Average Record
Temperature  
Mean Temperature 75 °F -  
Max Temperature 87 °F - 95 °F (1963)
Min Temperature 64 °F - 30 °F (2000)
Cooling Degree Days 10    
Growing Degree Days 25 (Base 50)    
Moisture  
Dew Point 65 °F    
Average Humidity 72    
Maximum Humidity 87    
Minimum Humidity 52    
Precipitation  
Precipitation 0.00 in - 2.20 in (2014)
Sea Level Pressure  
Sea Level Pressure 29.85 in    
Wind  
Wind Speed 4 mph ()    
Max Wind Speed 15 mph    
Max Gust Speed 21 mph    
Visibility 9.3 miles    
Events Rain    
T = Trace of Precipitation, MM = Missing Value Source: Averaged Metar Reports

Daily Weather History Graph

Daily Weather History Graph

Search for Another Location

Airport or City:

Astronomy

Oct. 10, 2019 Rise Set
Actual Time 7:18 AM CDT 6:50 PM CDT
Civil Twilight 6:53 AM CDT 7:15 PM CDT
Nautical Twilight 6:24 AM CDT 7:44 PM CDT
Astronomical Twilight 5:55 AM CDT 8:13 PM CDT
Moon 5:40 PM CDT (10/10) 4:15 AM CDT (10/10)
Length of Visible Light 12h 21m
Length of Day
11h 31m
Waxing Gibbous, 91% of the Moon is Illuminated
Oct 10
Waxing Gibbous
Oct 13
Full
Oct 21
Last Quarter
Oct 27
New
Nov 4
First Quarter

Hourly Weather History & Observations

Time (CDT) Temp. Heat Index Dew Point Humidity Pressure Visibility Wind Dir Wind Speed Gust Speed Precip Events Conditions
12:53 AM 64.9 °F - 59.0 °F 81% 29.89 in 10.0 mi ENE 4.6 mph - N/A   Clear
1:53 AM 64.9 °F - 59.0 °F 81% 29.88 in 10.0 mi ENE 3.5 mph - N/A   Clear
2:53 AM 64.9 °F - 60.1 °F 84% 29.89 in 10.0 mi ENE 4.6 mph - N/A   Mostly Cloudy
4:53 AM 66.0 °F - 61.0 °F 84% 29.88 in 10.0 mi Calm Calm - N/A   Mostly Cloudy
5:53 AM 64.9 °F - 61.0 °F 87% 29.88 in 9.0 mi Calm Calm - N/A   Scattered Clouds
6:53 AM 66.0 °F - 62.1 °F 87% 29.90 in 9.0 mi ENE 3.5 mph - N/A   Overcast
7:25 AM 66.0 °F - 62.1 °F 87% 29.92 in 9.0 mi Calm Calm - N/A   Mostly Cloudy
7:53 AM 66.9 °F - 63.0 °F 87% 29.91 in 7.0 mi East 3.5 mph - N/A   Overcast
8:23 AM 68.0 °F - 64.0 °F 87% 29.92 in 7.0 mi NE 3.5 mph - N/A   Overcast
8:53 AM 70.0 °F - 64.9 °F 84% 29.91 in 6.0 mi Variable 3.5 mph - N/A   Haze
9:42 AM 75.0 °F - 68.0 °F 79% 29.92 in 8.0 mi South 5.8 mph - N/A   Mostly Cloudy
9:53 AM 75.0 °F - 68.0 °F 79% 29.91 in 9.0 mi South 11.5 mph - N/A   Mostly Cloudy
10:53 AM 82.0 °F 84.9 °F 68.0 °F 62% 29.88 in 10.0 mi SSW 15.0 mph 20.7 mph N/A   Clear
11:53 AM 82.9 °F 85.8 °F 68.0 °F 60% 29.88 in 10.0 mi SSW 13.8 mph 20.7 mph N/A   Mostly Cloudy
1:53 PM 86.0 °F 90.1 °F 69.1 °F 57% 29.81 in 10.0 mi SW 10.4 mph 18.4 mph N/A   Partly Cloudy
2:53 PM 84.9 °F 88.2 °F 68.0 °F 57% 29.79 in 10.0 mi SSW 5.8 mph - N/A   Mostly Cloudy
3:53 PM 86.0 °F 88.8 °F 66.9 °F 53% 29.78 in 10.0 mi South 15.0 mph - N/A   Scattered Clouds
4:53 PM 84.9 °F 88.2 °F 68.0 °F 57% 29.77 in 10.0 mi South 5.8 mph - N/A   Overcast
6:53 PM 82.0 °F 84.5 °F 66.9 °F 60% 29.77 in 10.0 mi SSE 5.8 mph - N/A   Clear
7:53 PM 82.0 °F 83.8 °F 64.9 °F 56% 29.75 in 10.0 mi SE 5.8 mph - N/A   Clear
8:53 PM 82.0 °F 83.1 °F 63.0 °F 52% 29.75 in 10.0 mi SSE 8.1 mph - N/A   Clear
9:53 PM 81.0 °F 82.5 °F 64.0 °F 56% 29.78 in 10.0 mi South 6.9 mph - N/A   Mostly Cloudy
10:53 PM 78.1 °F - 66.0 °F 66% 29.82 in 10.0 mi Calm Calm - N/A   Overcast
11:53 PM 75.9 °F - 66.9 °F 74% 29.84 in 9.0 mi Calm Calm - 0.00 in Rain Light Rain